Weather History for Janesville, WI

Change the Weather History Date:

Friday, June 28, 2013

  Actual Average Record
Temperature  
Mean Temperature 72 °F -  
Max Temperature 80 °F 77 °F 98 °F (2012)
Min Temperature 64 °F 57 °F 43 °F (1992)
Cooling Degree Days 7    
Growing Degree Days 22 (Base 50)    
Moisture  
Dew Point 59 °F    
Average Humidity 70    
Maximum Humidity 94    
Minimum Humidity 42    
Precipitation  
Precipitation 0.00 in - - ()
Sea Level Pressure  
Sea Level Pressure 29.69 in    
Wind  
Wind Speed 8 mph (WNW)    
Max Wind Speed 17 mph    
Max Gust Speed 23 mph    
Visibility 10 miles    
Events Rain    
Averages and records for this station are not official NWS values.
T = Trace of Precipitation, MM = Missing Value Source: NWS Daily Summary

Daily Weather History Graph

Daily Weather History Graph

Search for Another Location

Airport:

Trip Planner

Search our weather history database for the weather conditions in past years. The results will help you decide how hot, cold, wet, or windy it might be!

Date:

Astronomy

Jun. 28, 2013 Rise Set
Actual Time 5:20 AM CDT 8:38 PM CDT
Civil Twilight 4:45 AM CDT 9:12 PM CDT
Nautical Twilight 4:00 AM CDT 9:58 PM CDT
Astronomical Twilight 3:05 AM CDT 10:53 PM CDT
Moon 11:57 PM CDT (6/28) 11:37 AM CDT (6/28)
Length of Visible Light 16h 26m
Length of Day
15h 17m
Waning Gibbous, 66% of the Moon is Illuminated
Jun 28
Waning Gibbous
Jun 29
Last Quarter
Jul 8
New
Jul 15
First Quarter
Jul 22
Full

Hourly Weather History & Observations

Time (CDT) Temp. Heat Index Dew Point Humidity Pressure Visibility Wind Dir Wind Speed Gust Speed Precip Events Conditions
12:19 AM 71.6 °F - 59.0 °F 64% 29.73 in 10.0 mi West 9.2 mph - N/A   Scattered Clouds
12:39 AM 71.6 °F - 59.0 °F 64% 29.73 in 10.0 mi West 9.2 mph - N/A   Clear
12:59 AM 71.6 °F - 57.2 °F 60% 29.74 in 10.0 mi West 8.1 mph - N/A   Scattered Clouds
1:19 AM 71.6 °F - 57.2 °F 60% 29.74 in 10.0 mi WNW 5.8 mph - N/A   Scattered Clouds
1:39 AM 69.8 °F - 57.2 °F 64% 29.74 in 10.0 mi WNW 4.6 mph - N/A   Clear
1:59 AM 69.8 °F - 57.2 °F 64% 29.73 in 10.0 mi West 5.8 mph - N/A   Clear
2:19 AM 68.0 °F - 57.2 °F 68% 29.74 in 10.0 mi WNW 4.6 mph - N/A   Clear
2:39 AM 68.0 °F - 57.2 °F 68% 29.73 in 10.0 mi West 6.9 mph - N/A   Clear
2:59 AM 68.0 °F - 57.2 °F 68% 29.72 in 10.0 mi West 4.6 mph - N/A   Clear
3:19 AM 66.2 °F - 57.2 °F 73% 29.72 in 10.0 mi WNW 5.8 mph - N/A   Clear
3:39 AM 66.2 °F - 57.2 °F 73% 29.72 in 10.0 mi West 4.6 mph - N/A   Clear
3:59 AM 66.2 °F - 57.2 °F 73% 29.71 in 10.0 mi West 4.6 mph - N/A   Clear
4:19 AM 66.2 °F - 57.2 °F 73% 29.71 in 10.0 mi West 6.9 mph - N/A   Clear
4:39 AM 66.2 °F - 57.2 °F 73% 29.71 in 10.0 mi West 3.5 mph - N/A   Clear
4:59 AM 66.2 °F - 57.2 °F 73% 29.70 in 10.0 mi WNW 3.5 mph - N/A   Scattered Clouds
5:19 AM 64.4 °F - 57.2 °F 77% 29.70 in 10.0 mi WNW 5.8 mph - N/A   Scattered Clouds
5:45 AM 64.4 °F - 57.2 °F 77% 29.71 in 10.0 mi NW 5.8 mph - N/A   Mostly Cloudy
6:45 AM 68.0 °F - 57.2 °F 68% 29.70 in 10.0 mi WNW 5.8 mph - N/A   Clear
7:45 AM 73.4 °F - 57.2 °F 57% 29.71 in 10.0 mi WNW 11.5 mph - N/A   Clear
9:45 AM 75.2 °F - 55.4 °F 50% 29.70 in 10.0 mi WNW 11.5 mph - N/A   Clear
10:45 AM 75.2 °F - 55.4 °F 50% 29.68 in 10.0 mi NW 17.3 mph - N/A   Scattered Clouds
11:45 AM 80.6 °F 80.5 °F 55.4 °F 42% 29.68 in 10.0 mi NW 13.8 mph 20.7 mph N/A   Scattered Clouds
12:45 PM 77.0 °F - 57.2 °F 50% 29.67 in 10.0 mi NW 13.8 mph 20.7 mph N/A   Overcast
1:45 PM 80.6 °F 80.8 °F 57.2 °F 45% 29.65 in 10.0 mi NW 15.0 mph 23.0 mph N/A   Mostly Cloudy
2:45 PM 78.8 °F - 57.2 °F 47% 29.65 in 10.0 mi NW 13.8 mph 20.7 mph N/A   Mostly Cloudy
3:45 PM 68.0 °F - 62.6 °F 83% 29.66 in 10.0 mi NW 13.8 mph - N/A Rain Light Rain
4:45 PM 75.2 °F - 62.6 °F 65% 29.64 in 10.0 mi NW 15.0 mph 23.0 mph N/A   Scattered Clouds
5:45 PM 73.4 °F - 62.6 °F 69% 29.64 in 10.0 mi NW 17.3 mph - N/A   Scattered Clouds
6:45 PM 71.6 °F - 62.6 °F 73% 29.65 in 10.0 mi NW 12.7 mph 19.6 mph N/A   Mostly Cloudy
7:45 PM 69.8 °F - 62.6 °F 78% 29.65 in 10.0 mi NW 6.9 mph - N/A   Mostly Cloudy
8:45 PM 68.0 °F - 62.6 °F 83% 29.65 in 10.0 mi WNW 8.1 mph - N/A   Scattered Clouds
9:15 PM 68.0 °F - 62.6 °F 83% 29.64 in 10.0 mi West 6.9 mph - N/A   Clear
9:35 PM 68.0 °F - 62.6 °F 83% 29.65 in 10.0 mi NW 5.8 mph - N/A   Clear
9:55 PM 68.0 °F - 62.6 °F 83% 29.65 in 10.0 mi NW 5.8 mph - N/A   Clear
10:15 PM 68.0 °F - 62.6 °F 83% 29.66 in 10.0 mi NW 6.9 mph - N/A   Scattered Clouds
10:35 PM 68.0 °F - 62.6 °F 83% 29.66 in 10.0 mi NW 5.8 mph - N/A   Scattered Clouds
10:55 PM 66.2 °F - 62.6 °F 88% 29.65 in 10.0 mi NW 5.8 mph - N/A   Scattered Clouds
11:15 PM 66.2 °F - 62.6 °F 88% 29.64 in 10.0 mi NW 6.9 mph - N/A   Scattered Clouds
11:35 PM 66.2 °F - 62.6 °F 88% 29.64 in 10.0 mi NW 4.6 mph - N/A   Overcast
11:55 PM 64.4 °F - 62.6 °F 94% 29.64 in 10.0 mi NW 5.8 mph - N/A   Mostly Cloudy